Location: Sagn�
(15.2046°N, 12.7898°W)
Time: 13:29:07
(UTC+00:00)

Cosmos 2221 - Pass Details

Date: 08 May 2021
Orbit: 593 x 615 km, 82.5° (Epoch: 15 June)

Event Time Altitude Azimuth Distance (km) Brightness Sun altitude
Rises 19:55:38 0° 175° (S) 2,821 5.7 -11.0°
Reaches altitude 10° 19:57:51 10° 170° (S) 1,923 4.8 -11.5°
Maximum altitude 20:02:00 54° 93° (E) 725 2.6 -12.4°
Drops below altitude 10° 20:06:11 10° 16° (NNE) 1,937 5.2 -13.4°
Sets 20:08:26 0° 12° (NNE) 2,844 6.1 -13.9°
